Location: Auckland
(36.8670°S, 174.7670°E)
Time: 10:32:36
(UTC+12:00)

Cosmos 1242 Rocket - Pass Details

Date: 24 January 2019
Orbit: 450 x 489 km, 81.2° (Epoch: 19 April)

Event Time Altitude Azimuth Distance (km) Brightness Sun altitude
Rises 22:56:02 0° 199° (SSW) 2,603 7.4 -22.8°
Reaches altitude 10° 22:58:17 10° 208° (SSW) 1,712 6.4 -23.1°
Maximum altitude 23:01:43 34° 273° (W) 830 4.0 -23.5°
Enters shadow 23:02:15 33° 293° (WNW) 859 3.9 -23.6°
